El Paso, TX (88563)

4:33 PM MDT on July 06, 2015 (GMT -0600)
Shock | | Change Station
CLOSE
Current Station
Personal Weather Station
Location: El Paso, TX
Elevation: 3924 ft
Nearby Weather Stations

Elev 3924 ft 31.76 °N, 106.33 °W | Updated 14 minutes ago

Partly Cloudy
Partly Cloudy
98.1 °F
Feels Like 97 °F
N
9.4
Wind Variable Wind from West

Today
High -- | Low -- °F
--% Chance of Precip.
Yesterday
High -- | Low -- °F
Precip. -- in
6:05 AM 8:14 PM
Waning Gibbous, 71% visible
Pressure 29.73 in
Visibility 10.0 miles
Clouds Few 8000 ft
Mostly Cloudy 12000 ft
Heat Index 97 °F
Dew Point 57 °F
Humidity 26%
Rainfall 0.00 in
Snow Depth Not available.
UV 5 out of 12
Pollen 1.90 out of 12
Air Quality Not available.
Flu Activity Not available.
METAR KELP 062151Z 29010KT 10SM FEW080 BKN120 36/12 A2997 RMK AO2 SLP065 T03560117

More Conditions Fewer Conditions

Pressure 29.73 in
Visibility 10.0 miles
Clouds Few 8000 ft
Mostly Cloudy 12000 ft
Heat Index 97 °F
Dew Point 57 °F
Humidity 26%
Rainfall 0.00 in
Snow Depth Not available.
UV 5 out of 12
Pollen 1.90 out of 12
Air Quality Not available.
Flu Activity Not available.
METAR KELP 062151Z 29010KT 10SM FEW080 BKN120 36/12 A2997 RMK AO2 SLP065 T03560117

More Conditions Fewer Conditions

10-Day Weather Forecast

×

Almanac

Astronomy

Jul. 06, 2015 Rise Set
Actual Time
Civil Twilight
Nautical Twilight
Astronomical Twilight
Moon
Length of Visible Light
Length of Day
Tomorrow will be .
, % of the Moon is Illuminated

Today's Extremes

State Highs State Lows

Community

WunderPhotos

Upload Photos

1,835,666 photos uploaded!

WunderBlogs® & News

Nearby

Air Quality

  Air Quality AQ Index Pollutant
Not available.

Snow Depth

Station Depth Elevation

Earthquake Activity

City Distance Mag. Time & Date
Minimum magnitude displayed is 2.5.

Coastal Water Temperatures

Place Temperature

Stations

Nearby Weather Stations

Station Location Temp. Windchill Dew Point Humidity Wind Precip. Elev Updated Type